Regional Weather Roundup
Issued by NWS

Home | Current Version | Previous Version | Text Only | Print | Product List | Glossary Off
Versions: 1 2 3 4 5 6 7 8 9 10 11 12 13 14 15 16 17 18 19 20 21 22 23 24 25 26 27 28 29 30 31 32 33 34 35 36 37 38 39 40 41 42 43 44 45 46 47 48 49 50

000
ASUS43 KDMX 230506
RWRIA

WEATHER ROUNDUP FOR IOWA
NATIONAL WEATHER SERVICE DES MOINES IA
1100 PM CST WED FEB 22 2017

NOTE: "FAIR" INDICATES FEW OR NO CLOUDS BELOW 12,000 FEET WITH NO
SIGNIFICANT WEATHER AND/OR OBSTRUCTIONS TO VISIBILITY.

* - THESE STATIONS ARE NOT NWS STATIONS...THUS NOT UNDER NWS
QUALITY CONTROL.  THEY ALSO DO NOT REPORT WEATHER SUCH
AS PRECIPITATION OR FOG.

IAZ001>003-012>014-020>022-031>034-043>046-230600-
   NORTHWEST IOWA

CITY           SKY/WX    TMP DP  RH WIND       PRES   REMARKS
CARROLL *      CLEAR     43  43 100 N12       29.80R
CHEROKEE *     CLEAR     39  38  95 N7        29.83R WCI  34
DENISON *      CLEAR     43  39  87 CALM      29.79R
LE MARS *      CLEAR     39  37  93 N10       29.84S WCI  32
ORANGE CITY *  CLEAR     37  37 100 N9        29.83S WCI  31
SHELDON *      MOCLDY    37  37 100 N16       29.82R WCI  28
SIOUX CITY     PTCLDY    45  37  73 N15       29.82R
SPENCER        CLOUDY    38  35  89 NW20      29.83R WCI  28
STORM LAKE *   CLEAR     39  36  87 N13       29.81R WCI  32
$$

IAZ055>058-069>071-079>083-090>094-230600-
   SOUTHWEST IOWA

CITY           SKY/WX    TMP DP  RH WIND       PRES   REMARKS
ATLANTIC *     CLEAR     45  41  87 N5        29.80R
CLARINDA *     CLEAR     50  41  71 N15       29.80R
COUNCIL BLFS * CLEAR     45  41  87 N9        29.80R
CRESTON *      CLEAR     48  41  76 N15G22    29.78R
HARLAN  *      PTCLDY    43  39  87 CALM      29.84R
LAMONI         CLEAR     51  39  63 N10       29.74R
RED OAK *      CLEAR     46  41  81 N10       29.79R
SHENANDOAH *   PTCLDY    48  41  76 NE13      29.79R
$$

IAZ047>049-059>061-072>074-084-230600-
   CENTRAL IOWA

CITY           SKY/WX    TMP DP  RH WIND       PRES   REMARKS
AMES           CLEAR     46  41  82 N13       29.77R
ANKENY *       CLEAR     48  43  81 NW12      29.79R
BOONE *        CLEAR     45  45 100 N9        29.77R
CHARITON *     CLEAR     52  41  66 N14       29.74R
DES MOINES     CLEAR     51  43  74 N10       29.77R
GRINNELL*      CLEAR     47  42  83 NW15      29.75R
KNOXVILLE *    CLEAR     52  41  66 NW17      29.72R
MARSHALLTOWN   CLEAR     43  39  86 NW8       29.75R
NEWTON *       CLEAR     50  43  76 NW16      29.74R
PELLA *        CLEAR     50  43  75 N13       29.74R
PERRY *          N/A     46  42  88 N10       29.79R
$$

IAZ004>006-015-016-023>025-035-036-230600-
   NORTH CENTRAL IOWA

CITY           SKY/WX    TMP DP  RH WIND       PRES   REMARKS
ALGONA *       CLOUDY    39  37  93 N21G26    29.80R WCI  29
CLARION *      CLOUDY    41  41 100 NW18      29.78R
ESTHERVILLE    CLOUDY    36  35  96 NW21      29.81R WCI  25
FORT DODGE *   MOCLDY    41  34  75 N12       29.81R
MASON CITY     CLOUDY    41  38  89 NW17      29.77R
FOREST CITY *  CLOUDY    39  37  93 NW14G22   29.76R WCI  31
WEBSTER CITY * PTCLDY    41  37  87 NW18      29.76S
IOWA FALLS *     N/A     42  38  88 NW14      29.77R
$$

IAZ007>011-017>019-026>030-037>042-050>054-066-230600-
   NORTHEAST IOWA

CITY           SKY/WX    TMP DP  RH WIND       PRES   REMARKS
CEDAR RAPIDS   PTCLDY    49  45  86 NW16      29.69R
CHARLES CITY * CLOUDY    45  45 100 NW21      29.73R
CLINTON *      PTCLDY    49  42  77 W9        29.67R
DECORAH *      PTCLDY    46  43  87 VRB7G15   29.66R
DUBUQUE        CLEAR     50  43  77 W13       29.66R
MONTICELLO *   CLEAR     48  43  81 NW8       29.68R
OELWEIN *      CLEAR     45  45 100 NW10      29.71R
WATERLOO       CLEAR     45  40  82 NW10      29.73R
$$

IAZ064-065-067-068-078-230600-
   EAST CENTRAL IOWA

CITY           SKY/WX    TMP DP  RH WIND       PRES   REMARKS
DAVENPORT      CLEAR     49  41  74 W7        29.68R
IOWA CITY      CLEAR     46  39  76 W5        29.71R
MUSCATINE *    CLEAR     54  41  62 W3        29.70R
QUAD CITIES    CLEAR    N/A N/A N/A W5        29.67R
$$

IAZ062-063-075>077-085>089-095>099-230600-
   SOUTHEAST IOWA

CITY           SKY/WX    TMP DP  RH WIND       PRES   REMARKS
BURLINGTON     CLEAR     53  52  96 W5        29.69R
FAIRFIELD *    PTCLDY    52  39  62 W8        29.71R
KEOKUK *       CLEAR     50  50 100 W5        29.70R
OTTUMWA        CLEAR     53  42  66 NW14      29.72R
WASHINGTON *   CLEAR     52  43  71 W7        29.72R
$$

ABBREVIATIONS USED IN REMARKS
   TC - TEMPERATURES IN CELSIUS
  WCI - WIND CHILL INDEX
   HX - HEAT INDEX
  VSB - VISIBILITY
$$





USA.gov is the U.S. government's official web portal to all federal, state and local government web resources and services.